Time,TemperatureF,DewpointF,PressureIn,WindDirection,WindDirectionDegrees,WindSpeedMPH,WindSpeedGustMPH,Humidity,HourlyPrecipIn,Conditions,Clouds,dailyrainin,SoftwareType,DateUTC
2013-01-31 00:03:00,52.0,52.0,29.47,SSW,201,10.0,20.0,99,0.00,,,0.01,,2013-01-31 05:03:00,
2013-01-31 00:11:00,52.0,52.0,29.47,SSW,201,10.0,20.0,99,0.00,,,0.01,,2013-01-31 05:11:00,
2013-01-31 00:22:00,51.0,50.0,29.44,SSE,165,7.0,20.0,98,0.00,,,0.01,,2013-01-31 05:22:00,
2013-01-31 00:32:00,51.0,50.0,29.44,SSE,165,7.0,20.0,98,0.00,,,0.01,,2013-01-31 05:32:00,
2013-01-31 00:42:00,51.0,50.0,29.44,SSE,165,7.0,20.0,98,0.00,,,0.01,,2013-01-31 05:42:00,
2013-01-31 00:52:00,51.0,50.0,29.44,SSE,165,7.0,20.0,98,0.00,,,0.01,,2013-01-31 05:52:00,
2013-01-31 01:01:00,51.0,50.0,29.44,SSE,165,7.0,20.0,98,0.00,,,0.01,,2013-01-31 06:01:00,
2013-01-31 09:03:00,49.0,37.0,29.43,WSW,253,14.0,36.0,64,0.00,,,0.08,,2013-01-31 14:03:00,
2013-01-31 09:11:00,49.0,37.0,29.43,WSW,253,14.0,36.0,64,0.00,,,0.08,,2013-01-31 14:11:00,
2013-01-31 09:22:00,47.0,35.0,29.46,WNW,298,19.0,42.0,63,0.00,,,0.08,,2013-01-31 14:22:00,
2013-01-31 09:32:00,47.0,35.0,29.46,WNW,298,19.0,42.0,63,0.00,,,0.08,,2013-01-31 14:32:00,
2013-01-31 09:42:00,47.0,35.0,29.46,WNW,298,19.0,42.0,63,0.00,,,0.08,,2013-01-31 14:42:00,
2013-01-31 09:52:00,47.0,31.0,29.49,NNW,338,24.0,38.0,54,0.00,,,0.08,,2013-01-31 14:52:00,
2013-01-31 10:03:00,47.0,31.0,29.49,NNW,338,24.0,38.0,54,0.00,,,0.08,,2013-01-31 15:03:00,
2013-01-31 10:12:00,47.0,31.0,29.49,NNW,338,24.0,38.0,54,0.00,,,0.08,,2013-01-31 15:12:00,
2013-01-31 10:23:00,47.0,31.0,29.51,West,266,15.0,35.0,53,0.00,,,0.08,,2013-01-31 15:23:00,
2013-01-31 10:32:00,47.0,31.0,29.51,West,266,15.0,35.0,53,0.00,,,0.08,,2013-01-31 15:32:00,
2013-01-31 10:42:00,47.0,31.0,29.51,West,266,15.0,35.0,53,0.00,,,0.08,,2013-01-31 15:42:00,
2013-01-31 10:52:00,46.0,28.0,29.53,NW,318,11.0,32.0,50,0.00,,,0.08,,2013-01-31 15:52:00,
2013-01-31 11:02:00,46.0,28.0,29.55,NNW,328,7.0,33.0,50,0.00,,,0.08,,2013-01-31 16:02:00,
2013-01-31 11:03:00,46.0,28.0,29.53,NW,318,11.0,32.0,50,0.00,,,0.08,,2013-01-31 16:03:00,
2013-01-31 11:13:00,46.0,28.0,29.53,NW,318,11.0,32.0,50,0.00,,,0.08,,2013-01-31 16:13:00,
2013-01-31 11:22:00,46.0,28.0,29.55,NNW,328,7.0,33.0,50,0.00,,,0.08,,2013-01-31 16:22:00,
2013-01-31 11:33:00,46.0,28.0,29.55,NNW,328,7.0,33.0,50,0.00,,,0.08,,2013-01-31 16:33:00,
2013-01-31 11:42:00,46.0,28.0,29.55,NNW,328,7.0,33.0,50,0.00,,,0.08,,2013-01-31 16:42:00,
2013-01-31 11:52:00,46.0,28.0,29.55,NNW,328,7.0,33.0,50,0.00,,,0.08,,2013-01-31 16:52:00,
2013-01-31 12:23:00,46.0,28.0,29.57,SW,229,12.0,36.0,49,0.00,,,0.08,,2013-01-31 17:23:00,
2013-01-31 12:32:00,46.0,28.0,29.57,SW,229,12.0,36.0,49,0.00,,,0.08,,2013-01-31 17:32:00,
2013-01-31 12:44:00,46.0,28.0,29.57,SW,229,12.0,36.0,49,0.00,,,0.08,,2013-01-31 17:44:00,
2013-01-31 12:53:00,46.0,26.0,29.56,West,277,16.0,33.0,45,0.00,,,0.08,,2013-01-31 17:53:00,
2013-01-31 13:03:00,46.0,26.0,29.56,West,277,16.0,33.0,45,0.00,,,0.08,,2013-01-31 18:03:00,
2013-01-31 13:13:00,46.0,27.0,29.59,WSW,254,16.0,32.0,48,0.00,,,0.08,,2013-01-31 18:13:00,
2013-01-31 13:22:00,46.0,27.0,29.59,WSW,254,16.0,32.0,48,0.00,,,0.08,,2013-01-31 18:22:00,
2013-01-31 13:32:00,46.0,27.0,29.59,WSW,254,16.0,32.0,48,0.00,,,0.08,,2013-01-31 18:32:00,
2013-01-31 13:43:00,46.0,27.0,29.59,WSW,254,16.0,32.0,48,0.00,,,0.08,,2013-01-31 18:43:00,
2013-01-31 13:52:00,46.0,28.0,29.59,SW,235,11.0,34.0,50,0.00,,,0.08,,2013-01-31 18:52:00,
2013-01-31 14:02:00,46.0,28.0,29.59,SW,235,11.0,34.0,50,0.00,,,0.08,,2013-01-31 19:02:00,
2013-01-31 14:12:00,46.0,28.0,29.59,SW,235,11.0,34.0,50,0.00,,,0.08,,2013-01-31 19:12:00,
2013-01-31 14:22:00,45.0,24.0,29.60,West,260,15.0,34.0,44,0.00,,,0.08,,2013-01-31 19:22:00,
2013-01-31 14:33:00,45.0,24.0,29.60,West,260,15.0,34.0,44,0.00,,,0.08,,2013-01-31 19:33:00,
2013-01-31 14:43:00,45.0,24.0,29.60,West,260,15.0,34.0,44,0.00,,,0.08,,2013-01-31 19:43:00,
2013-01-31 14:52:00,45.0,24.0,29.61,WSW,246,8.0,41.0,43,0.00,,,0.08,,2013-01-31 19:52:00,
2013-01-31 15:02:00,45.0,24.0,29.61,WSW,246,8.0,41.0,43,0.00,,,0.08,,2013-01-31 20:02:00,
2013-01-31 15:12:00,45.0,24.0,29.61,WSW,246,8.0,41.0,43,0.00,,,0.08,,2013-01-31 20:12:00,
2013-01-31 15:22:00,46.0,23.0,29.62,NW,304,18.0,32.0,40,0.00,,,0.08,,2013-01-31 20:22:00,
2013-01-31 15:32:00,46.0,23.0,29.62,NW,304,18.0,32.0,40,0.00,,,0.08,,2013-01-31 20:32:00,
2013-01-31 15:42:00,46.0,23.0,29.62,NW,304,18.0,32.0,40,0.00,,,0.08,,2013-01-31 20:42:00,
2013-01-31 15:52:00,46.0,24.0,29.64,West,276,16.0,31.0,42,0.00,,,0.08,,2013-01-31 20:52:00,
2013-01-31 16:02:00,46.0,24.0,29.64,West,276,16.0,31.0,42,0.00,,,0.08,,2013-01-31 21:02:00,
2013-01-31 16:12:00,46.0,24.0,29.64,West,276,16.0,31.0,42,0.00,,,0.08,,2013-01-31 21:12:00,
2013-01-31 16:22:00,45.0,25.0,29.66,West,281,20.0,33.0,45,0.00,,,0.08,,2013-01-31 21:22:00,
2013-01-31 16:32:00,45.0,25.0,29.66,West,281,20.0,33.0,45,0.00,,,0.08,,2013-01-31 21:32:00,
2013-01-31 16:42:00,45.0,25.0,29.66,West,281,20.0,33.0,45,0.00,,,0.08,,2013-01-31 21:42:00,
2013-01-31 16:52:00,44.0,23.0,29.69,WSW,256,14.0,30.0,44,0.00,,,0.08,,2013-01-31 21:52:00,
2013-01-31 17:03:00,44.0,23.0,29.69,WSW,256,14.0,30.0,44,0.00,,,0.08,,2013-01-31 22:03:00,
2013-01-31 17:11:00,44.0,23.0,29.69,WSW,256,14.0,30.0,44,0.00,,,0.08,,2013-01-31 22:11:00,
2013-01-31 17:22:00,43.0,23.0,29.71,West,267,15.0,29.0,45,0.00,,,0.08,,2013-01-31 22:22:00,
2013-01-31 17:33:00,43.0,23.0,29.71,West,267,15.0,29.0,45,0.00,,,0.08,,2013-01-31 22:33:00,
2013-01-31 17:42:00,43.0,23.0,29.71,West,267,15.0,29.0,45,0.00,,,0.08,,2013-01-31 22:42:00,
2013-01-31 17:52:00,40.0,23.0,29.74,WNW,297,22.0,27.0,50,0.00,,,0.08,,2013-01-31 22:52:00,
2013-01-31 18:03:00,40.0,23.0,29.74,WNW,297,22.0,27.0,50,0.00,,,0.08,,2013-01-31 23:03:00,
2013-01-31 18:12:00,40.0,23.0,29.74,WNW,297,22.0,27.0,50,0.00,,,0.08,,2013-01-31 23:12:00,
2013-01-31 18:22:00,39.0,18.0,29.76,WNW,288,10.0,29.0,43,0.00,,,0.08,,2013-01-31 23:22:00,
2013-01-31 18:32:00,39.0,18.0,29.76,WNW,288,10.0,29.0,43,0.00,,,0.08,,2013-01-31 23:32:00,
2013-01-31 18:42:00,39.0,18.0,29.76,WNW,288,10.0,29.0,43,0.00,,,0.08,,2013-01-31 23:42:00,
2013-01-31 18:52:00,38.0,20.0,29.78,West,260,13.0,27.0,47,0.00,,,0.08,,2013-01-31 23:52:00,
2013-01-31 19:02:00,38.0,20.0,29.78,West,260,13.0,27.0,47,0.00,,,0.08,,2013-02-01 00:02:00,
2013-01-31 19:11:00,38.0,20.0,29.78,West,260,13.0,27.0,47,0.00,,,0.08,,2013-02-01 00:11:00,
2013-01-31 19:22:00,38.0,21.0,29.79,WSW,256,9.0,26.0,50,0.00,,,0.08,,2013-02-01 00:22:00,
2013-01-31 19:32:00,38.0,21.0,29.79,WSW,256,9.0,26.0,50,0.00,,,0.08,,2013-02-01 00:32:00,
2013-01-31 19:42:00,38.0,21.0,29.79,WSW,256,9.0,26.0,50,0.00,,,0.08,,2013-02-01 00:42:00,
2013-01-31 19:52:00,38.0,19.0,29.81,NW,313,12.0,27.0,46,0.00,,,0.08,,2013-02-01 00:52:00,
2013-01-31 20:01:00,38.0,19.0,29.81,NW,313,12.0,27.0,46,0.00,,,0.08,,2013-02-01 01:01:00,
2013-01-31 20:11:00,37.0,19.0,29.82,West,277,7.0,24.0,48,0.00,,,0.08,,2013-02-01 01:11:00,
2013-01-31 20:22:00,37.0,19.0,29.82,West,277,7.0,24.0,48,0.00,,,0.08,,2013-02-01 01:22:00,
2013-01-31 20:32:00,37.0,19.0,29.82,West,277,7.0,24.0,48,0.00,,,0.08,,2013-02-01 01:32:00,
2013-01-31 20:42:00,37.0,19.0,29.82,West,277,7.0,24.0,48,0.00,,,0.08,,2013-02-01 01:42:00,
2013-01-31 20:52:00,36.0,21.0,29.83,SW,233,9.0,20.0,53,0.00,,,0.08,,2013-02-01 01:52:00,
2013-01-31 21:02:00,36.0,21.0,29.83,SW,233,9.0,20.0,53,0.00,,,0.08,,2013-02-01 02:02:00,
2013-01-31 21:12:00,36.0,21.0,29.83,SW,233,9.0,20.0,53,0.00,,,0.08,,2013-02-01 02:12:00,
2013-01-31 21:21:00,36.0,19.0,29.84,West,272,13.0,30.0,49,0.00,,,0.08,,2013-02-01 02:21:00,
2013-01-31 21:32:00,36.0,19.0,29.84,West,272,13.0,30.0,49,0.00,,,0.08,,2013-02-01 02:32:00,
2013-01-31 21:42:00,36.0,19.0,29.84,West,272,13.0,30.0,49,0.00,,,0.08,,2013-02-01 02:42:00,
2013-01-31 21:52:00,36.0,17.0,29.85,WNW,284,18.0,30.0,45,0.00,,,0.08,,2013-02-01 02:52:00,
2013-01-31 22:02:00,36.0,17.0,29.85,WNW,284,18.0,30.0,45,0.00,,,0.08,,2013-02-01 03:02:00,
2013-01-31 22:12:00,36.0,17.0,29.85,WNW,284,18.0,30.0,45,0.00,,,0.08,,2013-02-01 03:12:00,
2013-01-31 22:22:00,35.0,21.0,29.88,WNW,285,12.0,39.0,57,0.00,,,0.08,,2013-02-01 03:22:00,
2013-01-31 22:32:00,33.0,15.0,29.89,West,262,9.0,25.0,48,0.00,,,0.08,,2013-02-01 03:32:00,
2013-01-31 22:33:00,35.0,21.0,29.88,WNW,285,12.0,39.0,57,0.00,,,0.08,,2013-02-01 03:33:00,
2013-01-31 22:42:00,35.0,21.0,29.88,WNW,285,12.0,39.0,57,0.00,,,0.08,,2013-02-01 03:42:00,
2013-01-31 22:52:00,33.0,15.0,29.89,West,262,9.0,25.0,48,0.00,,,0.08,,2013-02-01 03:52:00,
2013-01-31 23:02:00,33.0,15.0,29.89,West,262,9.0,25.0,48,0.00,,,0.08,,2013-02-01 04:02:00,
2013-01-31 23:11:00,33.0,15.0,29.89,West,262,9.0,25.0,48,0.00,,,0.08,,2013-02-01 04:11:00,
2013-01-31 23:22:00,33.0,15.0,29.89,West,262,9.0,25.0,48,0.00,,,0.08,,2013-02-01 04:22:00,
2013-01-31 23:52:00,32.0,15.0,29.91,WNW,297,8.0,19.0,48,0.00,,,0.08,,2013-02-01 04:52:00,